Location: Clarion
(42.7316°N, 93.7330°W)
Time: 09:16:14
(UTC+00:00)

TIMED - Pass Details

Date: 22 April 2026
Orbit: 581 x 582 km, 74.1° (Epoch: 16 May)

Event Time Altitude Azimuth Distance (km) Brightness Sun altitude
Rises 02:14:50 0° 340° (NNW) 2,813 8.8 -12.7°
Reaches altitude 10° 02:17:03 10° 342° (NNW) 1,908 7.8 -13.0°
Maximum altitude 02:21:19 82° 71° (ENE) 593 4.4 -13.7°
Enters shadow 02:24:27 18° 157° (SSE) 1,461 6.0 -14.2°
